Terug naar catalogus

COSMOS 1691 DEB

ActiefPO
NORAD 43317·DEBRIS·🇷🇺 Russia

Gelanceerd Oct 9, 1985 vanaf Plesetsk Cosmodrome

Loading…

Volgende Passages (komende 24 uur)

TLE

VerouderendSource: Space-Track

Epoch: Sep 5, 2026, 13:21 UTC

1 43317U 85094AB  26248.55631603  .00000208  00000-0  90507-3 0  9999
2 43317  82.5592 357.5807 0022189 156.0169 204.1969 12.76892067595510

Volg COSMOS 1691 DEB in realtime met AllMySat

Download on the App Store